| time (UTC) | temp C | wind direction | speed KPH | gust KPH | rain 1hr cm | rain 24hr cm | rain mn cm | humidity % | barometer mb |
| 20260506044202 | -17 | 0.0 | 0.0 | 0.00 | 0.00 | 0.00 | 1011.6 | ||
| 20260506043158 | -17 | 0.0 | 0.0 | 0.00 | 0.00 | 0.00 | 1011.9 | ||
| 20260506042154 | 7 | 175 | 1.6 | 4.8 | 0.18 | 0.03 | 0.03 | 98 | 1011.9 |
| 20260506041149 | 8 | 202 | 4.8 | 8.0 | 0.00 | 0.00 | 0.00 | 97 | 1011.9 |
| 20260506040149 | 8 | 202 | 4.8 | 8.0 | 0.00 | 0.00 | 0.00 | 97 | 1011.8 |
| 20260506035149 | 8 | 198 | 0.0 | 0.0 | 0.00 | 0.08 | 0.08 | 97 | 1011.8 |
| 20260506034149 | 8 | 198 | 0.0 | 0.0 | 0.00 | 0.08 | 0.08 | 97 | 1011.8 |
| 20260506033148 | 8 | 155 | 0.0 | 0.0 | 0.00 | 0.08 | 0.08 | 97 | 1011.9 |
| 20260506032148 | 8 | 159 | 0.0 | 0.0 | 0.00 | 0.08 | 0.08 | 96 | 1011.7 |
| 20260506031147 | 8 | 189 | 1.6 | 3.2 | 0.00 | 0.08 | 0.08 | 96 | 1011.7 |
| 20260506030143 | 8 | 193 | 0.0 | 0.0 | 0.00 | 0.08 | 0.08 | 95 | 1011.2 |
| 20260506025141 | 8 | 144 | 0.0 | 0.0 | 0.00 | 0.08 | 0.08 | 95 | 1011.1 |
| 20260506024141 | 8 | 175 | 0.0 | 0.0 | 0.00 | 0.08 | 0.08 | 95 | 1011.8 |
| 20260506023141 | 8 | 207 | 0.0 | 0.0 | 0.00 | 0.08 | 0.08 | 94 | 1011.7 |
| 20260506022141 | 8 | 230 | 0.0 | 0.0 | 0.00 | 0.08 | 0.08 | 94 | 1011.9 |
| 20260506021136 | 8 | 138 | 0.0 | 0.0 | 0.00 | 0.08 | 0.08 | 93 | 1011.6 |
| 20260506020137 | 8 | 197 | 0.0 | 0.0 | 0.00 | 0.08 | 0.08 | 92 | 1011.7 |
| 20260506015137 | 8 | 221 | 0.0 | 0.0 | 0.00 | 0.08 | 0.08 | 91 | 1011.7 |
| 20260506014136 | 8 | 144 | 0.0 | 0.0 | 0.00 | 0.08 | 0.08 | 88 | 1011.9 |
| 20260506013131 | 8 | 183 | 0.0 | 0.0 | 0.00 | 0.08 | 0.08 | 87 | 1011.5 |
| 20260506012129 | 9 | 161 | 0.0 | 0.0 | 0.00 | 0.08 | 0.08 | 85 | 1011.6 |
| 20260506011129 | 9 | 194 | 0.0 | 0.0 | 0.00 | 0.08 | 0.08 | 84 | 1011.4 |
| 20260506010124 | 9 | 192 | 0.0 | 0.0 | 0.00 | 0.08 | 0.08 | 84 | 1011.3 |
| 20260506005124 | 9 | 195 | 0.0 | 0.0 | 0.00 | 0.08 | 0.08 | 84 | 1011.0 |
| 20260506004124 | 9 | 210 | 0.0 | 0.0 | 0.00 | 0.08 | 0.08 | 82 | 1011.2 |
| 20260506003122 | 9 | 195 | 0.0 | 0.0 | 0.00 | 0.08 | 0.08 | 83 | 1011.0 |
| 20260506002120 | 9 | 202 | 0.0 | 0.0 | 0.00 | 0.08 | 0.08 | 83 | 1010.8 |
| 20260506001119 | 9 | 198 | 0.0 | 0.0 | 0.00 | 0.08 | 0.08 | 82 | 1010.7 |
| 20260506000119 | 9 | 204 | 0.0 | 0.0 | 0.00 | 0.08 | 0.08 | 82 | 1010.6 |
| 20260505235120 | 8 | 221 | 0.0 | 0.0 | 0.00 | 0.08 | 0.08 | 82 | 1010.6 |
| 20260505234119 | 9 | 258 | 0.0 | 0.0 | 0.00 | 0.08 | 0.08 | 82 | 1010.9 |
| 20260505233114 | 8 | 205 | 0.0 | 0.0 | 0.00 | 0.08 | 0.08 | 83 | 1011.0 |
| 20260505232114 | 9 | 196 | 0.0 | 0.0 | 0.00 | 0.08 | 0.08 | 83 | 1010.8 |
| 20260505231110 | 8 | 220 | 0.0 | 0.0 | 0.00 | 0.08 | 0.08 | 83 | 1010.9 |
| 20260505230109 | 9 | 223 | 0.0 | 0.0 | 0.00 | 0.08 | 0.08 | 83 | 1010.7 |
| 20260505225108 | 8 | 203 | 0.0 | 0.0 | 0.00 | 0.08 | 0.08 | 83 | 1010.7 |
| 20260505224107 | 8 | 222 | 0.0 | 0.0 | 0.00 | 0.08 | 0.08 | 84 | 1010.9 |
| 20260505223107 | 8 | 229 | 0.0 | 0.0 | 0.00 | 0.08 | 0.08 | 83 | 1010.9 |
| 20260505222105 | 8 | 289 | 0.0 | 1.6 | 0.00 | 0.08 | 0.08 | 84 | 1011.0 |
| 20260505221104 | 8 | 255 | 0.0 | 0.0 | 0.00 | 0.08 | 0.08 | 84 | 1010.8 |
| 20260505220100 | 8 | 234 | 0.0 | 0.0 | 0.00 | 0.08 | 0.08 | 84 | 1010.9 |
| 20260505215055 | 8 | 202 | 0.0 | 0.0 | 0.00 | 0.08 | 0.08 | 84 | 1010.9 |
| 20260505214055 | 8 | 225 | 0.0 | 0.0 | 0.00 | 0.08 | 0.08 | 84 | 1011.0 |
| 20260505213055 | 8 | 238 | 0.0 | 0.0 | 0.00 | 0.08 | 0.08 | 85 | 1011.0 |
| 20260505212055 | 8 | 284 | 1.6 | 3.2 | 0.00 | 0.08 | 0.08 | 84 | 1010.8 |
| 20260505211055 | 8 | 266 | 3.2 | 4.8 | 0.00 | 0.08 | 0.08 | 84 | 1010.8 |
| 20260505210054 | 8 | 263 | 6.4 | 9.7 | 0.00 | 0.08 | 0.08 | 83 | 1011.0 |
| 20260505205049 | 8 | 256 | 0.0 | 0.0 | 0.00 | 0.08 | 0.08 | 85 | 1010.9 |
| 20260505204044 | 8 | 282 | 0.0 | 1.6 | 0.00 | 0.08 | 0.08 | 84 | 1011.1 |
| 20260505203043 | 9 | 323 | 9.7 | 14.5 | 0.00 | 0.08 | 0.08 | 84 | 1010.9 |
| 20260505202040 | 9 | 282 | 0.0 | 3.2 | 0.00 | 0.08 | 0.08 | 85 | 1011.1 |
| 20260505201035 | 8 | 251 | 4.8 | 9.7 | 0.00 | 0.08 | 0.08 | 85 | 1010.9 |
| 20260505200036 | 9 | 263 | 0.0 | 3.2 | 0.00 | 0.08 | 0.08 | 85 | 1010.8 |
| 20260505195035 | 8 | 228 | 1.6 | 3.2 | 0.00 | 0.08 | 0.08 | 84 | 1010.7 |
| 20260505194033 | 9 | 240 | 4.8 | 8.0 | 0.00 | 0.08 | 0.08 | 84 | 1010.8 |
| 20260505193028 | 9 | 262 | 1.6 | 1.6 | 0.00 | 0.08 | 0.08 | 83 | 1010.6 |
| 20260505192024 | 9 | 254 | 4.8 | 8.0 | 0.30 | 0.08 | 0.08 | 79 | 1010.6 |
| 20260505191020 | 10 | 184 | 6.4 | 8.0 | 0.13 | 0.03 | 0.03 | 79 | 1010.6 |
| 20260505190016 | 10 | 255 | 0.0 | 0.0 | 0.00 | 0.00 | 0.00 | 75 | 1010.5 |
| 20260505185015 | 10 | 246 | 8.0 | 14.5 | 0.00 | 0.00 | 0.00 | 72 | 1010.4 |
| 20260505184015 | 11 | 282 | 9.7 | 12.9 | 0.00 | 0.00 | 0.00 | 68 | 1010.4 |
| 20260505183015 | 11 | 300 | 8.0 | 12.9 | 0.00 | 0.00 | 0.00 | 66 | 1010.2 |
| 20260505182014 | 12 | 317 | 8.0 | 11.3 | 0.00 | 0.00 | 0.00 | 65 | 1009.8 |
| 20260505181014 | 12 | 301 | 6.4 | 9.7 | 0.00 | 0.00 | 0.00 | 63 | 1009.5 |
| 20260505180014 | 12 | 193 | 4.8 | 8.0 | 0.00 | 0.00 | 0.00 | 62 | 1009.7 |
| 20260505175012 | 13 | 248 | 6.4 | 11.3 | 0.00 | 0.00 | 0.00 | 61 | 1009.5 |
| 20260505174010 | 13 | 325 | 6.4 | 14.5 | 0.00 | 0.00 | 0.00 | 62 | 1009.5 |
| 20260505173009 | 13 | 305 | 4.8 | 4.8 | 0.00 | 0.00 | 0.00 | 62 | 1008.9 |
| 20260505172008 | 13 | 183 | 4.8 | 9.7 | 0.00 | 0.00 | 0.00 | 66 | 1009.0 |
| 20260505171007 | 13 | 242 | 4.8 | 8.0 | 0.00 | 0.00 | 0.00 | 66 | 1008.8 |
| 20260505170006 | 13 | 271 | 6.4 | 9.7 | 0.00 | 0.00 | 0.00 | 67 | 1008.8 |
| 20260505165003 | 12 | 266 | 3.2 | 3.2 | 0.00 | 0.00 | 0.00 | 67 | 1008.7 |
| 20260505164004 | 12 | 223 | 4.8 | 8.0 | 0.00 | 0.00 | 0.00 | 68 | 1008.7 |
| 20260505163001 | 13 | 263 | 4.8 | 9.7 | 0.00 | 0.00 | 0.00 | 68 | 1008.8 |
| 20260505161959 | 13 | 328 | 8.0 | 11.3 | 0.00 | 0.00 | 0.00 | 68 | 1008.7 |
| 20260505160959 | 13 | 250 | 4.8 | 12.9 | 0.00 | 0.00 | 0.00 | 70 | 1008.7 |
| 20260505152957 | 13 | 336 | 8.0 | 11.3 | 0.00 | 0.00 | 0.00 | 73 | 1008.8 |
| 20260505151955 | 13 | 266 | 8.0 | 11.3 | 0.00 | 0.00 | 0.00 | 75 | 1008.0 |
| 20260505150954 | 13 | 281 | 6.4 | 9.7 | 0.00 | 0.00 | 0.00 | 75 | 1007.4 |
| 20260505124915 | 14 | 264 | 1.6 | 3.2 | 0.00 | 0.00 | 0.00 | 86 | 1005.7 |
| 20260505123913 | 14 | 233 | 4.8 | 8.0 | 0.00 | 0.00 | 0.00 | 85 | 1005.5 |
| 20260505122911 | 14 | 236 | 9.7 | 16.1 | 0.00 | 0.00 | 0.00 | 84 | 1005.4 |
| 20260505121911 | 14 | 230 | 6.4 | 9.7 | 0.00 | 0.00 | 0.00 | 84 | 1005.0 |
| 20260505120910 | 14 | 202 | 8.0 | 12.9 | 0.00 | 0.00 | 0.00 | 84 | 1004.8 |
| 20260505115905 | 13 | 218 | 6.4 | 11.3 | 0.00 | 0.00 | 0.00 | 84 | 1004.5 |
| 20260505114900 | 13 | 211 | 4.8 | 8.0 | 0.00 | 0.00 | 0.00 | 84 | 1004.4 |
| 20260505113859 | 13 | 187 | 6.4 | 12.9 | 0.00 | 0.00 | 0.00 | 85 | 1004.4 |
| 20260505112857 | 13 | 195 | 3.2 | 8.0 | 0.00 | 0.00 | 0.00 | 85 | 1004.1 |
| 20260505111856 | 13 | 197 | 4.8 | 4.8 | 0.00 | 0.00 | 0.00 | 84 | 1004.2 |
| 20260505110853 | 13 | 216 | 4.8 | 11.3 | 0.00 | 0.00 | 0.00 | 84 | 1004.0 |
| 20260505101844 | 13 | 201 | 6.4 | 8.0 | 0.00 | 0.00 | 0.00 | 84 | 1003.7 |
| 20260505100841 | 13 | 201 | 6.4 | 11.3 | 0.00 | 0.00 | 0.00 | 84 | 1003.6 |
| 20260505095839 | 13 | 201 | 4.8 | 9.7 | 0.00 | 0.00 | 0.00 | 84 | 1003.7 |
| 20260505094839 | 13 | 202 | 4.8 | 12.9 | 0.00 | 0.00 | 0.00 | 84 | 1003.5 |
| 20260505093837 | 13 | 201 | 4.8 | 4.8 | 0.00 | 0.00 | 0.00 | 83 | 1003.2 |
| 20260505092832 | 13 | 202 | 4.8 | 9.7 | 0.00 | 0.00 | 0.00 | 83 | 1003.2 |
| 20260505091827 | 13 | 203 | 6.4 | 11.3 | 0.00 | 0.00 | 0.00 | 83 | 1003.0 |
| 20260505090823 | 13 | 202 | 4.8 | 9.7 | 0.00 | 0.00 | 0.00 | 83 | 1003.0 |
| 20260505085823 | 13 | 204 | 8.0 | 12.9 | 0.00 | 0.00 | 0.00 | 83 | 1002.9 |
| 20260505084819 | 13 | 202 | 4.8 | 9.7 | 0.00 | 0.00 | 0.00 | 82 | 1002.7 |
| 20260505083814 | 14 | 202 | 4.8 | 8.0 | 0.00 | 0.00 | 0.00 | 81 | 1002.9 |
| 20260505082814 | 13 | 202 | 4.8 | 9.7 | 0.00 | 0.00 | 0.00 | 82 | 1002.7 |
| 20260505081813 | 13 | 199 | 4.8 | 8.0 | 0.00 | 0.00 | 0.00 | 82 | 1002.7 |
| 20260505080812 | 13 | 202 | 4.8 | 4.8 | 0.00 | 0.00 | 0.00 | 82 | 1002.6 |
| 20260505075809 | 14 | 203 | 6.4 | 9.7 | 0.00 | 0.00 | 0.00 | 81 | 1002.6 |
| 20260505074804 | 14 | 200 | 0.0 | 1.6 | 0.00 | 0.00 | 0.00 | 81 | 1002.5 |
| 20260505073804 | 14 | 197 | 8.0 | 12.9 | 0.00 | 0.00 | 0.00 | 80 | 1003.1 |
| 20260505072805 | 15 | 200 | 8.0 | 12.9 | 0.00 | 0.00 | 0.00 | 80 | 1003.0 |
| 20260505071802 | 15 | 202 | 6.4 | 11.3 | 0.00 | 0.00 | 0.00 | 80 | 1002.8 |
| 20260505070757 | 15 | 204 | 4.8 | 8.0 | 0.00 | 0.00 | 0.00 | 80 | 1003.1 |
| 20260505065754 | 15 | 198 | 9.7 | 17.7 | 0.00 | 0.00 | 0.00 | 80 | 1003.1 |
| 20260505064749 | 15 | 201 | 8.0 | 14.5 | 0.00 | 0.00 | 0.00 | 80 | 1003.2 |
| 20260505063744 | 14 | 201 | 8.0 | 12.9 | 0.00 | 0.00 | 0.00 | 81 | 1003.5 |
| 20260505062742 | 15 | 203 | 11.3 | 16.1 | 0.00 | 0.00 | 0.00 | 81 | 1003.5 |
| 20260505061742 | 15 | 202 | 8.0 | 16.1 | 0.00 | 0.00 | 0.00 | 79 | 1003.6 |
| 20260505060737 | 15 | 191 | 8.0 | 9.7 | 0.00 | 0.00 | 0.00 | 79 | 1003.3 |
| 20260505055735 | 15 | 200 | 11.3 | 17.7 | 0.00 | 0.00 | 0.00 | 78 | 1003.7 |
| 20260505054735 | 15 | 195 | 9.7 | 11.3 | 0.00 | 0.00 | 0.00 | 77 | 1003.8 |
| 20260505053732 | 15 | 196 | 8.0 | 12.9 | 0.00 | 0.00 | 0.00 | 78 | 1004.1 |
| 20260505052731 | 15 | 187 | 8.0 | 12.9 | 0.00 | 0.00 | 0.00 | 78 | 1004.2 |
| 20260505051730 | 15 | 204 | 8.0 | 11.3 | 0.00 | 0.00 | 0.00 | 79 | 1004.5 |
| 20260505050726 | 15 | 186 | 6.4 | 11.3 | 0.00 | 0.00 | 0.00 | 80 | 1004.3 |